Change the Weather History Date:

Wednesday, June 26, 2013

  Actual Average (KSTL) Record (KSTL)
Temperature  
Mean Temperature 82 °F 79 °F  
Max Temperature 91 °F 88 °F 102 °F (1954)
Min Temperature 73 °F 70 °F 51 °F (1958)
Degree Days  
Heating Degree Days 0 0  
Month to date heating degree days 3  
Since 1 June heating degree days 3  
Since 1 July heating degree days 4533  
Cooling Degree Days 17 14  
Month to date cooling degree days 276  
Year to date cooling degree days 450  
Since 1 June cooling degree days 276  
Growing Degree Days 32 (Base 50)    
Moisture  
Dew Point 74 °F    
Average Humidity 83    
Maximum Humidity 100    
Minimum Humidity 59    
Precipitation  
Precipitation 0.00 in 0.13 in 2.00 in (1942)
Month to date precipitation 3.79  
Year to date precipitation 20.16  
Snow  
Snow 0.00 in 0.00 in 0.00 in (2013)
Month to date snowfall 0.0  
Since 1 June snowfall 0.0  
Since 1 July snowfall 17.7  
Snow Depth -    
Sea Level Pressure  
Sea Level Pressure 29.79 in    
Wind  
Wind Speed 5 mph (South)    
Max Wind Speed 13 mph    
Max Gust Speed 18 mph    
Visibility 9 miles    
Events Rain , Thunderstorm    
T = Trace of Precipitation, MM = Missing Value Source: NWS Daily Summary

Daily Weather History Graph

Daily Weather History Graph

Search for Another Location

Airport or City:

Trip Planner

Search our weather history database for the weather conditions in past years. The results will help you decide how hot, cold, wet, or windy it might be!

Date:

Astronomy

Jun. 26, 2013 Rise Set
Actual Time 5:41 AM CDT 8:32 PM CDT
Civil Twilight 5:09 AM CDT 9:04 PM CDT
Nautical Twilight 4:29 AM CDT 9:44 PM CDT
Astronomical Twilight 3:43 AM CDT 10:29 PM CDT
Moon 10:59 PM CDT (6/26) 9:30 AM CDT (6/26)
Length of Visible Light 15h 54m
Length of Day
14h 51m
Waning Gibbous, 85% of the Moon is Illuminated
Jun 26
Waning Gibbous
Jun 29
Last Quarter
Jul 8
New
Jul 15
First Quarter
Jul 22
Full

Hourly Weather History & Observations

Time (CDT) Temp. Heat Index Dew Point Humidity Pressure Visibility Wind Dir Wind Speed Gust Speed Precip Events Conditions
12:15 AM 78.8 °F - 73.4 °F 83% 29.86 in 10.0 mi SE 4.6 mph - N/A   Clear
12:35 AM 77.0 °F - 73.4 °F 89% 29.85 in 10.0 mi SE 5.8 mph - N/A   Clear
12:55 AM 77.0 °F - 73.4 °F 89% 29.84 in 10.0 mi SE 6.9 mph - N/A   Clear
1:15 AM 77.0 °F - 73.4 °F 89% 29.84 in 10.0 mi SE 5.8 mph - N/A   Clear
1:35 AM 77.0 °F - 73.4 °F 89% 29.83 in 10.0 mi SE 6.9 mph - N/A   Clear
1:55 AM 75.2 °F - 73.4 °F 94% 29.83 in 10.0 mi SSE 5.8 mph - N/A   Scattered Clouds
2:15 AM 75.2 °F - 73.4 °F 94% 29.82 in 10.0 mi SE 5.8 mph - N/A   Mostly Cloudy
2:35 AM 75.2 °F - 73.4 °F 94% 29.81 in 10.0 mi SE 6.9 mph - N/A   Mostly Cloudy
2:55 AM 75.2 °F - 73.4 °F 94% 29.81 in 10.0 mi SSE 6.9 mph - N/A   Overcast
3:15 AM 75.2 °F - 73.4 °F 94% 29.81 in 10.0 mi SSE 5.8 mph - N/A   Overcast
3:35 AM 77.0 °F - 73.4 °F 89% 29.81 in 10.0 mi SSE 8.1 mph - N/A   Overcast
3:55 AM 77.0 °F - 71.6 °F 83% 29.80 in 10.0 mi SSE 8.1 mph - N/A   Overcast
4:15 AM 77.0 °F - 71.6 °F 83% 29.79 in 10.0 mi SE 6.9 mph - N/A   Overcast
4:35 AM 77.0 °F - 71.6 °F 83% 29.79 in 10.0 mi SSE 8.1 mph - N/A Thunderstorm Mostly Cloudy
4:55 AM 77.0 °F - 71.6 °F 83% 29.78 in 10.0 mi SSE 10.4 mph - N/A   Mostly Cloudy
5:15 AM 77.0 °F - 71.6 °F 83% 29.78 in 10.0 mi SSE 6.9 mph - N/A Thunderstorm Overcast
5:35 AM 77.0 °F - 71.6 °F 83% 29.79 in 10.0 mi SSE 4.6 mph - N/A   Overcast
5:55 AM 77.0 °F - 71.6 °F 83% 29.80 in 10.0 mi SE 3.5 mph - N/A Thunderstorm Overcast
6:15 AM 77.0 °F - 71.6 °F 83% 29.82 in 10.0 mi NNE 3.5 mph - N/A Thunderstorm Overcast
6:35 AM 77.0 °F - 71.6 °F 83% 29.82 in 10.0 mi NNE 8.1 mph - N/A   Mostly Cloudy
6:55 AM 77.0 °F - 71.6 °F 83% 29.82 in 10.0 mi NE 4.6 mph - N/A   Scattered Clouds
7:15 AM 77.0 °F - 73.4 °F 89% 29.81 in 10.0 mi ESE 3.5 mph - N/A   Partly Cloudy
7:35 AM 77.0 °F - 73.4 °F 89% 29.82 in 10.0 mi ESE 4.6 mph - N/A   Partly Cloudy
7:55 AM 77.0 °F - 73.4 °F 89% 29.81 in 10.0 mi SSE 4.6 mph - N/A   Clear
8:15 AM 77.0 °F - 73.4 °F 89% 29.81 in 10.0 mi SE 5.8 mph - N/A   Clear
8:35 AM 78.8 °F - 73.4 °F 83% 29.81 in 9.0 mi SE 5.8 mph - N/A   Clear
8:55 AM 80.6 °F 85.4 °F 73.4 °F 79% 29.80 in 10.0 mi South 8.1 mph - N/A   Clear
9:15 AM 82.4 °F 88.2 °F 73.4 °F 74% 29.80 in 9.0 mi SSW 8.1 mph - N/A   Partly Cloudy
9:55 AM 82.4 °F 88.2 °F 73.4 °F 74% 29.79 in 9.0 mi WSW 8.1 mph 17.3 mph N/A   Scattered Clouds
10:15 AM 84.2 °F 90.9 °F 73.4 °F 70% 29.78 in 10.0 mi SW 9.2 mph - N/A   Scattered Clouds
10:35 AM 84.2 °F 90.9 °F 73.4 °F 70% 29.78 in 10.0 mi SW 5.8 mph 16.1 mph N/A   Scattered Clouds
10:55 AM 84.2 °F 90.9 °F 73.4 °F 70% 29.79 in 9.0 mi SW 5.8 mph - N/A   Overcast
11:15 AM 84.2 °F 89.6 °F 71.6 °F 66% 29.79 in 8.0 mi WSW 5.8 mph - N/A   Overcast
11:35 AM 86.0 °F 93.4 °F 73.4 °F 66% 29.79 in 10.0 mi WSW 4.6 mph - N/A   Overcast
11:55 AM 86.0 °F 93.4 °F 73.4 °F 66% 29.79 in 9.0 mi West 5.8 mph - N/A   Overcast
12:15 PM 86.0 °F 93.4 °F 73.4 °F 66% 29.79 in 8.0 mi WSW 6.9 mph - N/A   Overcast
12:35 PM 86.0 °F 93.4 °F 73.4 °F 66% 29.79 in 9.0 mi WSW 8.1 mph - N/A   Overcast
12:55 PM 86.0 °F 93.4 °F 73.4 °F 66% 29.79 in 9.0 mi WSW 4.6 mph - N/A   Overcast
1:15 PM 87.8 °F 97.6 °F 75.2 °F 66% 29.79 in 9.0 mi West 5.8 mph - N/A   Mostly Cloudy
1:35 PM 89.6 °F 99.8 °F 75.2 °F 62% 29.78 in 9.0 mi WSW 8.1 mph - N/A   Mostly Cloudy
1:55 PM 89.6 °F 99.8 °F 75.2 °F 62% 29.78 in 9.0 mi WSW 9.2 mph - N/A   Mostly Cloudy
2:15 PM 91.4 °F 102.5 °F 75.2 °F 59% 29.77 in 9.0 mi West 6.9 mph - N/A   Scattered Clouds
2:35 PM 91.4 °F 102.5 °F 75.2 °F 59% 29.77 in 9.0 mi WSW 8.1 mph - N/A   Clear
2:55 PM 91.4 °F 102.5 °F 75.2 °F 59% 29.76 in 9.0 mi WSW 6.9 mph - N/A   Scattered Clouds
3:15 PM 91.4 °F 102.5 °F 75.2 °F 59% 29.75 in 10.0 mi SW 6.9 mph - N/A   Scattered Clouds
3:35 PM 89.6 °F 99.8 °F 75.2 °F 62% 29.74 in 10.0 mi SW 9.2 mph - N/A   Scattered Clouds
3:55 PM 89.6 °F 99.8 °F 75.2 °F 62% 29.73 in 9.0 mi SW 9.2 mph - N/A Thunderstorm Scattered Clouds
4:15 PM 87.8 °F 97.6 °F 75.2 °F 66% 29.75 in 9.0 mi WSW 4.6 mph - N/A Thunderstorm Partly Cloudy
4:35 PM 86.0 °F 95.1 °F 75.2 °F 70% 29.76 in 8.0 mi NE 12.7 mph 18.4 mph N/A Rain , Thunderstorm Light Rain
4:55 PM 77.0 °F - 73.4 °F 89% 29.77 in 7.0 mi NNE 11.5 mph - N/A Thunderstorm Mostly Cloudy
5:15 PM 75.2 °F - 75.2 °F 100% 29.77 in 10.0 mi ENE 6.9 mph - N/A   Mostly Cloudy
5:35 PM 77.0 °F - 75.2 °F 94% 29.78 in 10.0 mi Calm Calm - N/A Thunderstorm Partly Cloudy
5:55 PM 77.0 °F - 75.2 °F 94% 29.77 in 10.0 mi Calm Calm - N/A   Clear
6:15 PM 77.0 °F - 75.2 °F 94% 29.78 in 10.0 mi Calm Calm - N/A   Clear
6:35 PM 82.4 °F 89.5 °F 75.2 °F 79% 29.76 in 10.0 mi South 3.5 mph - N/A   Clear
6:55 PM 82.4 °F 89.5 °F 75.2 °F 79% 29.74 in 10.0 mi Calm Calm - N/A   Clear
7:15 PM 80.6 °F 88.1 °F 78.8 °F 94% 29.74 in 10.0 mi Calm Calm - N/A   Clear
7:35 PM 80.6 °F 88.1 °F 78.8 °F 94% 29.74 in 10.0 mi North 3.5 mph - N/A   Clear
7:55 PM 80.6 °F 88.1 °F 78.8 °F 94% 29.75 in 10.0 mi Calm Calm - N/A   Clear
8:15 PM 80.6 °F 87.1 °F 77.0 °F 89% 29.76 in 10.0 mi Calm Calm - N/A   Clear
8:35 PM 78.8 °F - 77.0 °F 94% 29.76 in 10.0 mi Calm Calm - N/A   Partly Cloudy
8:55 PM 77.0 °F - 77.0 °F 100% 29.77 in 7.0 mi Calm Calm - N/A   Clear
9:15 PM 77.0 °F - 77.0 °F 100% 29.78 in 6.0 mi Calm Calm - N/A   Clear
9:35 PM 75.2 °F - 75.2 °F 100% 29.78 in 5.0 mi Calm Calm - N/A   Clear
9:55 PM 75.2 °F - 75.2 °F 100% 29.79 in 4.0 mi Calm Calm - N/A   Clear
10:15 PM 75.2 °F - 75.2 °F 100% 29.80 in 4.0 mi Calm Calm - N/A   Clear
10:35 PM 75.2 °F - 75.2 °F 100% 29.80 in 0.8 mi NNW 3.5 mph - N/A   Mist
10:55 PM 75.2 °F - 75.2 °F 100% 29.80 in 1.8 mi Calm Calm - N/A   Scattered Clouds
11:15 PM 73.4 °F - 73.4 °F 100% 29.81 in 3.0 mi Calm Calm - N/A   Partly Cloudy
11:35 PM 73.4 °F - 73.4 °F 100% 29.82 in 5.0 mi Calm Calm - N/A   Clear
11:55 PM 73.4 °F - 73.4 °F 100% 29.82 in 6.0 mi Calm Calm - N/A   Clear